Home > Weather > Greenville > Past weeks

Flag for USA Past Weather in Greenville, South Carolina, USA — Yesterday and Last 2 Weeks

Now
81 °F

Overcast.


Feels Like: 84 °F
Forecast: 72 / 93 °F
Wind: 8 mph from West

Location: Greenville Downtown Airport

Current Time: Jul 23, 2016 at 7:17:22 PM

Latest Report: Jul 23, 2016 at 5:53 PM


Visibility: 10 mi

Pressure: 29.98 "Hg

Humidity: 67%

Dew Point: 69 °F

Location of GreenvilleLocation

Past Weather in Greenville — Graph

°F

Greenville Temperature Yesterday

Maximum temperature yesterday: 94 °F (at 2:53 PM)
Minimum temperature yesterday: 73 °F (at 4:53 AM)
Average temperature yesterday: 83 °F

High & Low Weather Summary for the Past Weeks

 TemperatureHumidityPressure
High97 °F (Jul 8, 5:53 PM)93% (Jul 12, 4:53 AM)30.26 "Hg (Jul 12, 4:53 AM)
Low70 °F (Jul 12, 4:53 AM)23% (Jul 11, 11:53 AM)29.90 "Hg (Jul 8, 5:53 PM)
Average82 °F61%30.08 "Hg
* Reported Jul 8 5:53 PM — Jul 23 5:53 PM, Greenville, Weather by CustomWeather, © 2016

Note: Actual official high and low records may vary slightly from our data, if they occured in-between our weather recording intervals... More about our weather records

Advertising

Greenville Weather History for the Previous 24 Hours

Scroll right to see more
 ConditionsComfort  
Time TempWeatherWind HumidityBarometerVisibility
5:53 PM
Sat, Jul 23
81 °FOvercast.8 mph67%29.98 "Hg10 mi
4:53 PM79 °FLight rain. Overcast.16 mph79%29.99 "Hg10 mi
3:53 PM91 °FBroken clouds.13 mph45%29.96 "Hg10 mi
2:53 PM95 °FScattered clouds.3 mph36%29.96 "Hg10 mi
1:53 PM95 °FScattered clouds.12 mph36%29.97 "Hg10 mi
12:53 PM92 °FScattered clouds.5 mph43%29.99 "Hg10 mi
11:53 AM92 °FSunny.8 mph43%30.01 "Hg10 mi
10:53 AM90 °FSunny.5 mph47%30.01 "Hg10 mi
9:53 AM85 °FSunny.3 mph57%30.00 "Hg10 mi
8:53 AM81 °FSunny.No wind67%30.01 "Hg10 mi
7:53 AM77 °FSunny.No wind77%30.00 "Hg10 mi
6:53 AM75 °FClear.3 mph82%30.00 "Hg10 mi
5:53 AM75 °FClear.No wind79%29.99 "Hg10 mi
4:53 AM75 °FClear.5 mph79%29.99 "Hg10 mi
3:53 AM75 °FClear.3 mph76%30.00 "Hg10 mi
2:53 AM77 °FClear.No wind71%30.01 "Hg10 mi
1:53 AM77 °FPassing clouds.5 mph71%30.02 "Hg10 mi
12:53 AM79 °FClear.5 mph65%30.03 "Hg10 mi
11:53 PM
Fri, Jul 22
81 °FClear.No wind60%30.03 "Hg10 mi
10:53 PM81 °FPassing clouds.3 mph62%30.02 "Hg10 mi
9:53 PM83 °FClear.3 mph57%30.01 "Hg10 mi
8:53 PM85 °FSunny.5 mph46%30.01 "Hg10 mi
7:53 PM85 °FSunny.3 mph48%30.02 "Hg10 mi
Weather by CustomWeather, © 2016

See weather overviewHow to use our weather pages